BEIDOU-3 G4

Last updated on Thu Nov 21 2024 00:02:45 GMT+0000 (Coordinated Universal Time)

1 56564U 23066A 24325.22966245 -.00000110 00000+0 00000+0 0 9996 2 56564 1.7364 288.9966 0004664 259.5618 113.9258 1.00271493 5644
UTC large
Height (km)
Speed (km/s)
/
Latitude / Longitude
Inclination (degrees)
Orbital Period (minutes)
Azimuth
Elevation
Range (km)
Doppler Factor

Next 0 passes for location: London (51.5072 / 0.1276)

Sorry there are no passes over London.